USA 121

导读

USA 121是美国于1996年5月12日发射的军用侦察卫星,隶属于美国国家侦察局。作为美国空间监测网络的组成部分,它主要承担军事侦察与情报搜集任务,运行在特定轨道上,为美国提供战略态势感知支持。该卫星延续了美国USA系列卫星保密任务的特点,具体载荷细节并未公开,是美国全球军事监控体系的重要空间节点。

Basic Information
目录编号:
23908
目录名称:
USA 121
国际标识:
1996-029C
轨道中心:
EARTH
卫星名称:
USA 121
卫星全名:
--
卫星状态:
在轨 (已飞行10993 天)
发射日期:
1996-05-12 UTC
国别 :
美国 (US)
星等 :
--
Orbit Information
数据来源 国际轨道数据 AOE轨道数据
星历时间 2026-06-17T02:20:22+0800
14小时前
查看轨道信息
2026-06-16T01:00:00+0800
1天前
查看轨道信息
半长轴 7464.287km 7464.261km
偏心率 0.0851377 0.0851349
轨道倾角 63.317° 63.316°
近地点辐角 49.461° 49.457°
升交点赤经 192.710° 195.473°
平近点角 317.746° 240.798°
近地点 450.657km 450.654km
远地点 1721.643km 1721.594km
周期 106.965分钟 106.965分钟
每日圈数 13.462333 13.462404
Detailed Information
使用方式:
暂无
2D Orbit Map
3D Orbit Map
Orbit Altitude Analysis Chart
Orbit Inclination Analysis Chart
Orbit Comprehensive Analysis Chart
View Comprehensive Chart